カタログに戻る

USA 40 R/B DEB

運用中HEO
NORAD 23353·DEBRIS·🇺🇸 United States

打ち上げ Aug 8, 1989 から Cape Canaveral Space Force Station

Loading…

次のパス (今後24時間)

TLE

最新Source: Space-Track

元期: Sep 14, 2026, 13:01 UTC

1 23353U 89061Z   26257.54294059  .00003615  00000-0  27929-2 0  9996
2 23353  56.9635 307.2909 2821223 184.3091 172.7457  9.20700297 81039

AllMySatでUSA 40 R/B DEBをリアルタイム追跡

Download on the App Store